Location: Unspecified
(0.0000°N, 0.0000°E)
Time: 12:39:01
(UTC+00:00)

ISS - Pass Details

Date: 21 May 2018
Orbit: 402 x 407 km, 51.6° (Epoch: 22 May)

Event Time Altitude Azimuth Distance (km) Brightness Sun altitude
Rises 05:17:45 0° 356° (N) 2,297 0.2 -9.1°
Reaches altitude 10° 05:20:44 10° 26° (NNE) 1,444 -0.3 -8.4°
Maximum altitude 05:22:14 13° 54° (NE) 1,298 0.1 -8.1°
Drops below altitude 10° 05:23:44 10° 82° (E) 1,449 0.6 -7.7°
Sets 05:26:45 0° 112° (ESE) 2,312 0.8 -7.0°
